Dewpoint
56 56 56 55 54 53 53 53 53 53 53 53 52 52 52 52 51 51 51 50 51 50 50 49 48 48 48 48 47 48 48 49 50 51 51 49 49 50 50 50 50 49 49 50 51 48 46 44 44 44 44 42 42 41 41 41 41 42 44 45 45 46 47 49 49 47 46 47 47 46 45 46 46 47 50 48 48 48 49 49 50 50 51 52 53
55 54 54 53 53 52 52 52 52 52 52 52 52 51 51 51 51 50 50 50 50 49 49 48 48 47 47 47 47 47 47 48 49 50 51 50 49 50 49 47 46 45 45 46 49 48 46 44 43 42 42 41 41 40 40 40 41 41 42 43 44 45 46 48 50 47 44 44 44 44 44 45 45 45 47 47 45 47 47 47 48 48 48 50 50
53 53 52 52 52 51 51 51 51 51 51 51 51 51 51 50 51 50 50 50 49 48 48 47 47 46 46 46 46 46 46 46 46 47 48 49 49 46 45 44 43 43 43 44 44 45 44 44 42 42 42 40 40 40 40 40 41 41 42 43 43 44 45 47 50 46 45 44 44 43 43 44 44 44 45 45 45 46 46 46 47 47 48 48 48
52 52 51 51 51 51 51 51 50 50 50 51 51 51 51 51 51 51 49 48 48 48 47 46 46 46 45 45 44 44 43 44 44 45 46 47 47 44 42 41 41 41 42 43 43 43 42 42 41 41 41 40 40 40 40 40 41 41 42 42 43 44 45 47 48 46 44 43 43 43 44 44 44 43 45 45 44 44 45 46 46 45 46 47 47
51 51 51 51 51 50 50 50 50 50 50 50 50 50 50 50 51 50 48 48 47 47 47 46 45 45 44 43 42 42 42 42 43 44 45 46 46 43 41 40 40 40 41 41 45 42 42 40 41 41 40 39 39 39 39 40 41 42 42 43 44 45 46 48 45 44 44 43 43 44 44 44 44 44 44 43 43 43 44 44 44 44 44 45 46
51 51 51 51 50 50 50 50 50 50 50 49 49 49 50 50 50 49 48 47 47 46 46 46 45 44 43 43 42 41 41 41 42 43 45 46 45 43 42 41 40 40 40 40 40 42 41 40 40 40 40 39 39 39 40 40 41 41 42 44 45 46 47 44 43 42 42 42 43 43 43 44 44 44 43 43 43 43 42 42 43 43 43 43 44
51 51 50 50 50 50 50 50 50 49 50 50 50 50 49 50 49 48 48 47 46 45 45 45 45 43 42 42 41 41 41 41 42 43 45 45 44 43 42 41 40 40 39 40 40 40 41 40 40 40 40 39 39 39 39 40 41 41 43 44 45 46 44 43 41 41 41 41 41 42 43 44 44 43 43 43 43 43 42 42 41 41 42 43 43
50 50 50 50 50 50 50 50 50 50 50 50 49 49 49 49 48 47 47 46 45 45 44 44 44 43 42 41 41 43 41 41 42 43 44 44 43 43 43 42 40 39 39 39 40 40 40 40 40 40 41 40 40 39 39 40 41 40 41 43 45 44 43 42 41 41 40 40 40 40 41 42 42 42 43 42 42 42 43 42 41 41 41 42 42
50 50 50 50 50 50 50 50 50 50 49 49 49 48 48 47 47 47 46 46 47 46 45 44 43 42 41 40 40 40 41 41 42 43 44 44 43 43 42 41 40 39 38 38 39 39 39 39 41 40 43 43 42 42 42 43 42 40 41 42 44 43 43 42 42 41 40 40 40 40 39 39 39 40 40 40 41 41 42 41 40 41 41 41 42
51 50 49 49 50 50 49 49 49 49 49 49 48 47 47 46 46 45 45 45 45 45 44 43 42 40 39 39 39 40 40 41 43 44 45 44 43 43 42 41 39 38 38 37 37 38 38 39 43 42 43 43 41 39 39 40 43 43 41 41 42 42 42 41 41 41 40 40 39 39 38 38 38 39 39 40 40 41 40 41 40 40 41 41 41
50 49 49 49 50 50 50 50 49 49 49 48 47 47 46 46 45 45 44 44 43 43 41 40 40 39 39 38 38 39 39 40 40 41 42 43 43 42 40 39 38 38 37 36 36 38 37 38 38 40 42 42 41 38 38 39 40 40 41 43 44 42 41 40 40 41 40 40 39 39 38 38 38 39 39 39 40 40 40 40 40 40 40 40 39
49 49 50 50 50 50 50 50 49 49 48 47 46 46 46 46 45 45 44 43 43 41 40 40 39 39 38 37 38 38 39 40 39 41 41 41 43 43 40 38 38 37 36 36 36 37 37 36 36 38 38 41 39 35 38 39 39 40 40 40 40 40 39 41 40 39 40 39 38 38 39 39 39 39 39 40 40 40 40 40 40 40 40 40 41
49 49 49 48 48 48 48 48 48 48 47 47 46 45 45 45 45 44 43 43 41 40 40 39 38 38 37 36 37 37 38 39 39 40 41 41 41 42 40 39 38 37 36 35 35 35 35 36 35 35 35 40 40 34 35 36 40 41 42 42 42 42 38 37 39 42 40 39 38 38 39 39 39 39 40 41 41 40 40 40 40 40 41 41 41
49 48 48 47 47 48 48 48 48 47 47 46 45 45 44 44 43 42 41 40 40 39 39 39 38 37 36 36 36 37 38 39 39 40 41 40 40 41 40 39 38 37 36 36 35 35 35 35 34 33 33 35 36 35 35 35 36 39 39 39 40 41 41 39 39 39 40 40 39 38 39 39 39 40 41 41 40 40 40 40 40 40 40 40 40
47 47 47 47 47 48 48 47 47 46 46 45 45 45 45 44 42 40 38 37 37 36 36 36 37 37 36 35 36 36 37 38 38 39 40 40 40 41 40 40 39 38 37 38 36 36 36 37 35 32 33 33 37 37 36 36 36 37 38 38 38 39 40 40 40 40 40 40 39 39 39 40 40 40 41 41 41 41 41 41 41 40 39 39 39
47 47 47 47 47 47 47 46 46 45 45 45 45 44 43 42 41 41 40 39 39 38 37 36 35 34 34 34 35 35 37 37 37 38 38 39 40 42 40 38 38 38 37 37 36 36 36 38 35 33 33 33 37 35 37 39 35 36 36 35 36 36 37 41 40 40 41 40 40 40 39 39 39 40 40 40 40 41 41 40 38 37 37 37 36
46 47 46 46 46 46 46 45 45 44 44 44 43 42 42 41 41 40 39 38 37 36 36 35 35 34 34 34 33 34 35 37 36 37 37 37 38 39 39 38 38 37 36 36 34 34 35 39 38 34 33 33 36 34 35 38 34 34 34 33 33 33 34 36 40 39 38 38 38 38 38 38 38 39 39 39 40 41 39 37 36 37 36 35 36
46 46 45 46 46 45 45 44 44 43 43 42 42 42 41 40 40 40 38 38 38 38 38 36 35 35 33 33 33 33 34 36 36 36 36 36 38 36 36 35 33 34 33 33 34 34 35 41 43 35 34 34 35 34 35 37 33 33 32 31 31 31 32 35 38 40 38 38 38 38 38 38 39 39 39 39 39 41 40 37 37 38 36 35 34
45 45 45 45 45 44 44 43 42 42 42 42 41 40 40 39 40 39 38 38 37 37 37 35 35 35 35 36 39 33 33 36 36 35 36 36 37 35 36 35 34 34 34 34 34 34 34 37 40 38 36 36 34 34 34 36 32 33 32 30 30 30 32 33 36 38 36 36 37 38 38 39 40 40 41 39 40 41 40 39 39 38 35 35 35
45 44 44 44 44 43 43 43 42 42 42 41 40 39 40 39 38 37 37 37 37 37 36 35 34 34 34 33 34 33 33 34 36 36 36 36 36 35 34 34 34 33 34 36 33 32 33 33 36 35 34 34 34 33 34 34 33 32 33 31 31 30 33 32 35 37 36 36 36 37 38 38 38 39 39 39 40 41 40 40 40 39 37 36 35
44 44 43 43 43 43 43 42 42 42 42 41 40 40 38 37 36 35 35 36 36 35 35 35 35 35 35 35 35 36 36 34 36 35 36 36 36 35 33 33 32 33 33 33 32 32 32 33 33 36 34 34 34 33 33 33 35 34 32 31 32 34 34 31 33 36 35 37 37 37 37 37 37 38 38 39 39 40 40 39 40 40 39 37 36
43 43 43 43 43 42 42 42 42 42 42 41 40 38 37 36 35 35 35 35 35 35 35 36 35 35 35 35 34 34 38 39 34 35 36 36 36 36 34 33 33 33 32 31 31 31 32 32 33 35 34 33 33 33 33 33 33 34 32 33 33 33 33 35 32 31 32 35 35 35 36 36 37 37 38 38 39 40 39 39 39 40 40 40 38
42 42 42 42 42 42 42 42 42 43 42 41 39 39 39 38 37 37 37 37 36 36 35 35 35 35 35 35 33 33 33 36 36 35 35 35 35 35 35 34 35 37 32 31 30 31 31 32 35 36 34 34 33 33 33 33 33 31 32 33 33 33 33 31 31 30 30 31 33 34 34 36 36 37 38 38 39 39 38 38 38 39 40 40 40
42 42 41 41 41 41 42 42 42 41 41 40 40 39 39 39 39 39 39 38 38 37 35 36 35 35 33 31 32 31 31 31 35 36 35 35 35 35 34 34 34 34 34 31 31 31 32 31 34 34 34 34 33 33 33 33 32 32 32 32 33 33 32 30 29 29 30 29 30 31 33 35 36 37 37 38 38 38 38 38 38 38 38 39 40
41 41 41 41 41 41 41 41 41 41 40 40 39 39 39 39 39 39 39 38 38 37 36 36 35 32 30 30 28 29 31 30 30 34 35 35 34 34 34 34 34 34 32 32 32 33 34 35 34 33 34 34 33 33 33 33 33 32 32 32 35 29 31 29 28 29 27 28 29 30 32 34 35 37 37 37 38 38 38 38 38 38 38 37 38
40 40 40 40 40 40 40 40 40 40 39 39 39 39 39 39 38 38 38 37 37 36 34 33 31 30 29 28 28 28 29 28 28 29 34 36 34 34 34 33 34 34 33 31 34 34 35 36 34 33 33 34 33 32 32 31 32 32 32 33 28 28 30 30 27 27 27 27 29 29 30 33 34 36 36 37 37 37 37 37 37 37 37 37 37
40 40 40 40 40 40 39 38 38 38 38 38 38 38 37 37 37 36 36 35 34 33 32 31 31 29 28 27 27 28 26 27 27 27 28 29 29 31 31 31 33 32 32 31 32 33 36 36 32 33 32 33 32 32 32 32 30 30 29 28 27 27 29 30 29 28 29 28 27 28 29 31 33 34 36 36 36 37 37 37 36 36 37 37 36
40 40 40 40 38 37 37 35 36 35 34 34 34 34 34 35 35 35 34 33 32 32 31 30 29 28 27 28 27 26 25 25 25 26 26 29 29 28 29 29 27 27 28 29 31 34 33 34 32 31 29 29 29 28 27 28 28 28 28 28 27 27 30 32 31 27 28 28 27 28 29 30 31 32 34 36 36 36 36 37 37 36 36 36 36
40 39 38 36 36 36 36 35 34 33 32 31 31 31 31 33 33 32 31 31 32 31 31 30 30 28 28 27 25 25 24 23 24 31 29 33 30 27 27 27 27 28 33 33 34 32 29 28 28 27 27 26 26 27 27 27 26 26 27 28 28 26 26 26 26 27 28 28 28 27 28 28 30 31 32 34 35 36 36 36 36 36 36 36 35
38 37 35 35 34 34 33 33 32 31 30 30 30 30 31 34 32 32 31 34 33 33 32 31 31 30 29 27 26 23 22 23 30 33 33 33 34 33 33 33 32 31 33 33 33 27 26 26 26 26 26 25 26 25 25 26 25 25 24 28 27 27 26 25 25 27 28 27 28 28 27 28 28 30 31 32 33 35 35 35 35 35 35 34 34
37 35 34 33 33 33 32 31 30 30 29 29 29 28 28 29 32 34 33 34 33 32 33 33 33 32 29 25 28 32 32 33 32 33 33 34 34 33 33 33 33 33 33 28 28 25 22 24 24 23 25 25 23 24 24 24 23 26 24 24 25 27 27 26 26 26 27 27 27 27 28 27 27 28 29 30 31 32 33 33 33 34 34 33 33
36 34 33 32 32 31 30 29 29 29 28 28 27 27 26 27 27 30 33 33 33 33 32 32 31 31 31 30 30 25 29 32 33 33 34 34 33 33 33 33 34 34 33 31 25 22 24 24 23 24 25 25 24 24 23 22 22 22 24 24 25 26 26 25 26 25 26 26 27 27 27 27 27 27 27 29 29 31 31 32 32 31 32 32 32
35 33 32 31 31 29 28 28 28 28 27 26 26 25 25 25 24 24 26 31 33 33 33 33 33 32 33 33 33 28 28 31 33 34 34 34 33 33 33 34 35 34 33 28 22 22 24 26 25 24 24 24 24 23 23 23 21 21 23 23 22 23 24 25 25 25 25 26 26 26 27 27 27 28 27 27 28 29 30 30 30 29 30 31 31
35 33 31 30 28 27 27 27 26 26 26 24 24 22 22 23 22 22 21 19 22 25 30 33 32 32 34 34 32 30 31 32 34 34 33 33 33 33 32 31 33 33 31 26 24 22 25 25 25 25 24 24 25 24 23 22 23 22 22 22 23 24 24 25 24 25 24 26 25 25 26 26 25 26 27 27 27 27 29 29 29 30 30 29 29
34 32 31 29 26 26 25 25 24 24 24 23 21 21 22 22 21 20 18 18 18 17 17 20 27 31 27 29 30 31 32 33 33 33 32 32 33 33 32 29 27 27 27 28 27 26 25 25 25 25 25 25 24 24 23 23 22 22 21 21 22 23 24 24 24 24 25 25 25 25 24 24 25 24 23 24 25 26 26 27 29 28 28 29 29
34 31 30 28 25 24 23 23 23 23 23 22 22 22 23 22 21 20 21 21 21 19 20 22 22 29 31 32 33 33 33 33 33 33 32 31 32 31 26 24 25 24 25 25 26 27 26 25 26 26 26 25 26 25 24 24 24 22 22 21 19 22 22 23 23 23 23 23 24 25 26 25 25 24 24 22 24 24 23 24 25 26 27 27 25
31 30 28 26 24 23 23 23 23 23 25 25 24 23 23 23 23 23 23 22 22 21 19 20 23 23 27 29 34 34 34 33 33 33 33 32 32 29 26 26 25 26 25 24 26 27 26 25 26 26 26 25 25 25 25 25 25 24 27 23 22 23 22 22 22 22 22 22 24 24 24 22 23 24 21 21 22 23 24 24 24 25 25 26 28
30 28 27 26 24 24 24 24 25 27 26 25 23 23 23 23 23 24 24 23 24 24 22 23 29 24 22 23 36 32 27 31 32 31 32 32 28 26 27 27 27 27 26 25 26 28 26 26 27 26 26 27 25 25 25 25 25 25 24 23 23 22 30 21 22 21 20 19 22 23 23 24 23 22 22 20 19 20 22 22 22 22 23 24 23
29 29 29 28 26 24 24 25 26 25 25 24 24 24 25 24 25 25 25 26 26 25 25 26 26 26 26 26 26 34 29 27 26 27 29 29 28 28 27 27 28 27 26 26 27 27 27 27 27 27 27 27 25 25 26 25 25 24 25 23 20 21 19 18 18 18 19 19 20 21 22 23 23 21 21 19 21 20 20 20 20 20 20 20 21
27 27 28 28 26 26 27 27 27 26 26 24 24 24 25 26 26 27 28 28 27 27 26 27 27 27 27 27 27 29 28 28 28 28 28 28 28 28 27 27 27 27 26 27 27 27 26 26 27 27 26 26 26 26 26 26 26 25 25 21 19 19 19 19 18 18 18 19 19 20 21 22 22 21 20 21 21 20 19 20 20 20 20 19 20
27 28 29 28 28 28 29 29 27 26 26 25 25 25 25 26 27 28 28 29 29 28 29 29 28 28 28 30 31 31 30 29 29 28 28 28 27 27 26 27 27 26 26 27 27 27 26 25 26 27 26 26 26 27 27 26 26 24 23 23 22 22 21 21 20 20 19 19 19 20 21 21 22 20 19 21 26 22 20 21 20 20 20 20 20
30 30 30 29 29 29 29 29 28 28 28 28 27 27 27 28 28 28 29 28 29 29 29 29 29 30 31 32 32 33 32 29 27 25 25 25 26 27 28 27 27 27 26 27 27 27 27 25 26 27 26 26 25 26 24 24 25 24 24 22 23 23 22 22 21 20 19 19 20 20 20 22 24 23 21 29 21 19 20 21 20 20 21 19 20
31 31 30 30 29 29 28 29 29 29 29 29 28 28 29 28 28 28 29 29 28 28 27 28 29 30 30 31 32 31 32 29 27 25 24 25 25 27 28 29 28 27 27 27 28 28 28 27 28 28 27 27 27 27 26 27 26 24 23 23 24 24 24 24 22 22 22 20 20 22 21 21 22 21 21 21 20 20 19 20 21 20 20 18 19
31 30 30 30 29 29 30 30 30 29 29 29 29 29 29 29 29 29 28 28 28 28 27 27 28 27 26 26 27 27 27 26 25 26 27 27 27 27 27 28 28 28 28 28 28 29 28 29 28 28 28 27 27 27 27 28 28 26 26 25 25 25 25 25 25 25 24 23 23 22 22 22 23 22 23 23 20 20 20 20 20 20 20 19 19
31 30 29 29 30 29 31 30 29 29 29 29 28 29 30 30 30 29 29 28 28 28 27 27 27 27 26 24 23 24 25 25 27 28 28 29 29 29 29 28 26 25 29 30 29 30 29 29 29 27 28 29 28 28 28 29 29 29 28 27 27 27 28 28 28 28 26 25 24 24 22 23 23 22 23 22 21 20 21 20 20 23 21 20 19
30 30 29 29 29 30 31 30 29 28 28 28 28 28 28 30 29 29 28 28 28 27 27 27 27 28 28 26 25 26 26 27 27 28 29 29 30 30 30 29 28 27 28 30 29 30 30 30 29 28 29 29 29 28 28 29 28 28 29 28 29 29 30 30 30 26 26 26 26 25 25 24 24 24 26 24 23 22 22 22 20 21 20 21 21
31 29 30 29 28 30 31 30 29 28 29 29 28 28 28 29 29 29 29 29 29 29 28 27 28 28 29 28 28 27 27 28 29 29 29 29 29 30 30 29 28 27 28 29 29 29 30 29 30 30 30 30 29 28 28 27 27 27 28 29 29 29 30 30 29 29 29 29 27 26 25 25 26 25 27 26 25 25 24 24 23 23 23 22 22
30 29 29 30 29 29 31 29 30 29 29 30 29 29 29 29 29 29 28 29 28 28 28 28 28 28 29 29 29 29 29 29 29 29 30 30 30 29 29 28 28 28 28 27 28 29 30 30 30 30 30 30 30 30 29 28 28 28 28 29 29 29 29 28 30 30 30 30 28 28 28 27 27 27 27 26 26 26 25 26 25 24 25 25 24
28 28 29 29 28 29 30 29 30 28 29 29 30 29 29 29 29 29 28 28 28 28 28 28 28 27 27 27 28 28 28 29 29 29 29 29 29 29 28 28 28 28 27 28 29 28 29 29 30 30 30 30 29 29 28 28 28 28 29 29 29 29 29 28 28 30 29 30 29 29 29 29 28 28 28 27 28 27 27 27 26 27 26 26 26
28 29 29 30 28 28 31 29 29 29 29 28 29 29 30 29 29 29 29 28 28 28 28 28 28 27 27 27 28 28 28 28 29 29 28 28 28 28 28 28 28 29 29 29 29 29 29 28 28 28 29 29 29 29 29 29 29 29 29 30 29 29 29 29 28 28 29 30 30 30 29 29 29 29 29 29 28 28 28 28 28 28 28 27 27
28 28 29 31 29 28 31 29 29 29 29 29 28 28 29 29 29 29 29 29 28 28 28 28 28 28 28 28 29 29 29 28 29 29 29 29 29 29 29 28 28 28 28 28 29 29 29 29 29 29 30 30 30 30 29 29 30 30 28 29 29 29 28 28 30 28 28 27 29 30 30 30 29 29 29 29 29 28 29 29 29 28 28 28 28